Location: *
(35.2348°S, 91.3916°E)
Time: 22:57:29
(UTC+00:00)

Cosmos 2327 Rocket - Pass Details

Date: 23 October 2019
Orbit: 943 x 1009 km, 83.0° (Epoch: 14 November)

Event Time Altitude Azimuth Distance (km) Brightness Sun altitude
Rises 21:14:40 0° 189° (S) 3,773 7.9 -20.8°
Reaches altitude 10° 21:17:14 10° 190° (S) 2,814 7.2 -20.4°
Maximum altitude 21:23:43 76° 274° (W) 1,041 4.5 -19.2°
Drops below altitude 10° 21:30:02 10° 358° (N) 2,752 6.6 -18.1°
Sets 21:32:31 0° 359° (N) 3,685 7.2 -17.7°
